,,PA_Meas_PMT16A,,PR_Meas_QMR101_102,,RH_Meas_QMH101,,SR_Meas_QMS101,,TA_Meas_QMH101,,GenWind,,GenWind,
time,status,PA,status,PR,status,RH,status,SR,status,TA,status,DirAvg,status,SpdAvg,
2010-01-25, 00:00:04,VALID,919.13,VALID,0,VALID,97.7093,VALID,0,VALID,20.0118,VALID,180,VALID,0.286328,
2010-01-25, 00:01:04,VALID,919.092,VALID,0,VALID,97.7093,VALID,0,VALID,19.9923,VALID,180,VALID,0.371094,
2010-01-25, 00:02:04,VALID,919.083,VALID,0,VALID,97.7246,VALID,0,VALID,20.0118,VALID,180,VALID,0.321875,
2010-01-25, 00:03:04,VALID,919.089,VALID,0,VALID,97.7017,VALID,0,VALID,20.0118,VALID,180,VALID,0.321875,
2010-01-25, 00:04:04,VALID,919.1,VALID,0,VALID,97.7093,VALID,0,VALID,20.0313,VALID,180,VALID,0.446875,
2010-01-25, 00:05:04,VALID,919.086,VALID,0,VALID,97.7093,VALID,0.107441,VALID,20.0313,VALID,180,VALID,0.465625,
2010-01-25, 00:06:04,VALID,919.09,VALID,0,VALID,97.6865,VALID,0,VALID,20.0298,VALID,180,VALID,0.817187,
2010-01-25, 00:07:04,VALID,919.095,VALID,0,VALID,97.7093,VALID,0.107441,VALID,20.0703,VALID,180,VALID,0.543359,
2010-01-25, 00:08:04,VALID,919.051,VALID,0,VALID,97.7093,VALID,0,VALID,20.0508,VALID,180,VALID,0.465234,
2010-01-25, 00:09:04,VALID,919.033,VALID,0,VALID,97.7246,VALID,0,VALID,20.0898,VALID,180,VALID,0.763281,
2010-01-25, 00:10:04,VALID,919.023,VALID,0,VALID,97.7246,VALID,0,VALID,20.0703,VALID,180,VALID,0.873828,
2010-01-25, 00:11:04,VALID,919.026,VALID,0,VALID,97.6941,VALID,0,VALID,20.1093,VALID,180,VALID,1.02031,
2010-01-25, 00:12:04,VALID,919.023,VALID,0,VALID,97.6788,VALID,0,VALID,20.1288,VALID,180,VALID,0.650781,
2010-01-25, 00:13:04,VALID,919.021,VALID,0,VALID,97.7017,VALID,0,VALID,20.1093,VALID,180,VALID,0.616797,
2010-01-25, 00:14:04,VALID,919.03,VALID,0,VALID,97.6941,VALID,0.107441,VALID,20.1093,VALID,179,VALID,0.825,
2010-01-25, 00:15:04,VALID,919.041,VALID,0,VALID,97.6865,VALID,0,VALID,20.0898,VALID,179,VALID,0.549609,
2010-01-25, 00:16:04,VALID,919.064,VALID,0,VALID,97.6788,VALID,0,VALID,20.1093,VALID,130,VALID,0.908594,
2010-01-25, 00:17:04,VALID,919.06,VALID,0,VALID,97.6941,VALID,0,VALID,20.1108,VALID,130,VALID,1.30156,
2010-01-25, 00:18:04,VALID,919.039,VALID,0,VALID,97.6865,VALID,0,VALID,20.0898,VALID,130,VALID,0.845312,
2010-01-25, 00:19:04,VALID,919.034,VALID,0,VALID,97.6788,VALID,0,VALID,20.0898,VALID,130,VALID,1.09414,
2010-01-25, 00:20:04,VALID,919.021,VALID,0,VALID,97.6788,VALID,0,VALID,20.0898,VALID,149,VALID,1.39766,
2010-01-25, 00:21:04,VALID,919.016,VALID,0,VALID,97.6788,VALID,0,VALID,20.1093,VALID,133,VALID,1.64219,
2010-01-25, 00:22:04,VALID,919.005,VALID,0,VALID,97.6712,VALID,0.107441,VALID,20.1288,VALID,156,VALID,1.01797,
2010-01-25, 00:23:04,VALID,919.017,VALID,0,VALID,97.656,VALID,0,VALID,20.1093,VALID,143,VALID,1.3457,
2010-01-25, 00:24:04,VALID,919.015,VALID,0,VALID,97.6788,VALID,0.107441,VALID,20.1288,VALID,162,VALID,1.30195,
2010-01-25, 00:25:04,VALID,919.003,VALID,0,VALID,97.6636,VALID,0,VALID,20.1093,VALID,162,VALID,0.480859,
2010-01-25, 00:26:04,VALID,919.009,VALID,0,VALID,97.6712,VALID,0,VALID,20.1093,VALID,162,VALID,0.829297,
2010-01-25, 00:27:04,VALID,919.026,VALID,0,VALID,97.656,VALID,0,VALID,20.1288,VALID,172,VALID,0.635938,
2010-01-25, 00:28:04,VALID,919.029,VALID,0,VALID,97.656,VALID,0,VALID,20.1288,VALID,172,VALID,0.915625,
2010-01-25, 00:29:04,VALID,918.986,VALID,0,VALID,97.6788,VALID,0,VALID,20.1093,VALID,172,VALID,0.712891,
2010-01-25, 00:30:04,VALID,919.029,VALID,0,VALID,97.6712,VALID,0,VALID,20.1093,VALID,172,VALID,0.656641,
2010-01-25, 00:31:04,VALID,918.986,VALID,0,VALID,97.656,VALID,0,VALID,20.0898,VALID,172,VALID,0.855859,
2010-01-25, 00:32:04,VALID,918.974,VALID,0,VALID,97.6483,VALID,0,VALID,20.0508,VALID,172,VALID,0.6,
2010-01-25, 00:33:04,VALID,918.99,VALID,0,VALID,97.656,VALID,0,VALID,20.0508,VALID,172,VALID,0.828516,
2010-01-25, 00:34:04,VALID,918.981,VALID,0,VALID,97.656,VALID,0,VALID,20.0703,VALID,172,VALID,0.392578,
2010-01-25, 00:35:05,VALID,918.986,VALID,0,VALID,97.6483,VALID,0,VALID,20.0508,VALID,172,VALID,0.419141,
2010-01-25, 00:36:05,VALID,918.967,VALID,0,VALID,97.656,VALID,0,VALID,20.0313,VALID,172,VALID,0.665625,
2010-01-25, 00:37:05,VALID,918.98,VALID,0,VALID,97.6865,VALID,0,VALID,20.0313,VALID,172,VALID,0.408984,
2010-01-25, 00:38:05,VALID,918.951,VALID,0,VALID,97.656,VALID,0,VALID,20.0313,VALID,172,VALID,0.169922,
2010-01-25, 00:39:05,VALID,918.946,VALID,0,VALID,97.6788,VALID,0,VALID,20.0118,VALID,172,VALID,0.631641,
2010-01-25, 00:40:05,VALID,918.941,VALID,0,VALID,97.6712,VALID,0,VALID,20.0313,VALID,172,VALID,0.801953,
2010-01-25, 00:41:05,VALID,918.903,VALID,0,VALID,97.6788,VALID,0,VALID,20.0703,VALID,172,VALID,0.892187,
2010-01-25, 00:42:05,VALID,918.889,VALID,0,VALID,97.6636,VALID,0,VALID,20.0313,VALID,172,VALID,0.754687,
2010-01-25, 00:43:05,VALID,918.839,VALID,0,VALID,97.6712,VALID,0,VALID,20.0703,VALID,172,VALID,1.06289,
2010-01-25, 00:44:05,VALID,918.869,VALID,0,VALID,97.6483,VALID,0,VALID,20.0703,VALID,172,VALID,0.588281,
2010-01-25, 00:45:05,VALID,918.816,VALID,0,VALID,97.6483,VALID,0.107441,VALID,20.0898,VALID,135,VALID,0.856641,
2010-01-25, 00:46:05,VALID,918.831,VALID,0,VALID,97.6712,VALID,0,VALID,20.0898,VALID,136,VALID,1.05039,
2010-01-25, 00:47:05,VALID,918.844,VALID,0,VALID,97.6636,VALID,0,VALID,20.1093,VALID,136,VALID,0.947656,
2010-01-25, 00:48:05,VALID,918.841,VALID,0,VALID,97.6407,VALID,0,VALID,20.1093,VALID,136,VALID,1.29219,
2010-01-25, 00:49:05,VALID,918.821,VALID,0,VALID,97.656,VALID,0,VALID,20.0898,VALID,136,VALID,0.558984,
2010-01-25, 00:50:05,VALID,918.827,VALID,0,VALID,97.6407,VALID,0.107441,VALID,20.0898,VALID,136,VALID,1.1125,
2010-01-25, 00:51:05,VALID,918.846,VALID,0,VALID,97.6331,VALID,0,VALID,20.0898,VALID,136,VALID,0.85625,
2010-01-25, 00:52:05,VALID,918.854,VALID,0,VALID,97.6407,VALID,0,VALID,20.0898,VALID,136,VALID,1.23516,
2010-01-25, 00:53:05,VALID,918.818,VALID,0,VALID,97.6407,VALID,0,VALID,20.0898,VALID,136,VALID,0.885156,
2010-01-25, 00:54:05,VALID,918.842,VALID,0,VALID,97.6255,VALID,0,VALID,20.0703,VALID,136,VALID,0.831641,
2010-01-25, 00:55:05,VALID,918.856,VALID,0,VALID,97.6178,VALID,0,VALID,20.0508,VALID,136,VALID,0.676562,
2010-01-25, 00:56:05,VALID,918.851,VALID,0,VALID,97.6331,VALID,0,VALID,20.0703,VALID,136,VALID,0.568359,
2010-01-25, 00:57:05,VALID,918.838,VALID,0,VALID,97.6178,VALID,0,VALID,20.0703,VALID,136,VALID,0.183594,
2010-01-25, 00:58:05,VALID,918.827,VALID,0,VALID,97.6178,VALID,0,VALID,20.0508,VALID,136,VALID,0.301953,
2010-01-25, 00:59:05,VALID,918.849,VALID,0,VALID,97.6102,VALID,0,VALID,20.0703,VALID,136,VALID,0,
2010-01-25, 01:00:05,VALID,918.879,VALID,0,VALID,97.6178,VALID,0,VALID,20.0508,VALID,136,VALID,0,
2010-01-25, 01:01:05,VALID,918.857,VALID,0,VALID,97.6255,VALID,0,VALID,20.0508,VALID,136,VALID,0,
2010-01-25, 01:02:05,VALID,918.879,VALID,0,VALID,97.6178,VALID,0,VALID,20.0508,VALID,136,VALID,0,
2010-01-25, 01:03:05,VALID,918.886,VALID,0,VALID,97.6407,VALID,0,VALID,20.0313,VALID,136,VALID,0.0269531,
2010-01-25, 01:04:05,VALID,918.878,VALID,0,VALID,97.6102,VALID,0,VALID,20.0313,VALID,136,VALID,0.305469,
2010-01-25, 01:05:05,VALID,918.88,VALID,0,VALID,97.6483,VALID,0,VALID,20.0313,VALID,136,VALID,0.0578125,
2010-01-25, 01:06:05,VALID,918.87,VALID,0,VALID,97.6178,VALID,0,VALID,20.0313,VALID,136,VALID,0.235156,
2010-01-25, 01:07:05,VALID,918.826,VALID,0,VALID,97.6255,VALID,0,VALID,20.0118,VALID,136,VALID,0.0183594,
2010-01-25, 01:08:05,VALID,918.828,VALID,0,VALID,97.6255,VALID,0,VALID,19.9713,VALID,136,VALID,0.783594,
2010-01-25, 01:09:05,VALID,918.807,VALID,0,VALID,97.6407,VALID,0.107441,VALID,19.9728,VALID,136,VALID,0.817187,
2010-01-25, 01:10:05,VALID,918.81,VALID,0,VALID,97.6102,VALID,0.107441,VALID,19.9533,VALID,136,VALID,0.210938,
2010-01-25, 01:11:05,VALID,918.798,VALID,0,VALID,97.6407,VALID,0.107441,VALID,19.9533,VALID,136,VALID,0.466406,
2010-01-25, 01:12:05,VALID,918.787,VALID,0,VALID,97.6331,VALID,0,VALID,19.9728,VALID,136,VALID,0.246484,
2010-01-25, 01:13:05,VALID,918.818,VALID,0,VALID,97.6178,VALID,0.107441,VALID,19.9728,VALID,136,VALID,0,
2010-01-25, 01:14:05,VALID,918.768,VALID,0,VALID,97.6331,VALID,0,VALID,19.9728,VALID,136,VALID,0,
2010-01-25, 01:15:05,VALID,918.792,VALID,0,VALID,97.6331,VALID,0,VALID,19.9743,VALID,136,VALID,0.158594,
2010-01-25, 01:16:05,VALID,918.756,VALID,0,VALID,97.6178,VALID,0,VALID,19.9728,VALID,136,VALID,0,
2010-01-25, 01:17:05,VALID,918.746,VALID,0,VALID,97.6483,VALID,0,VALID,19.9728,VALID,136,VALID,0,
2010-01-25, 01:18:05,VALID,918.725,VALID,0,VALID,97.6331,VALID,0,VALID,19.9128,VALID,136,VALID,0.344141,
2010-01-25, 01:19:05,VALID,918.708,VALID,0,VALID,97.6331,VALID,0,VALID,19.9143,VALID,136,VALID,0.638281,
2010-01-25, 01:20:05,VALID,918.7,VALID,0,VALID,97.6331,VALID,0,VALID,19.9338,VALID,136,VALID,0.704687,
2010-01-25, 01:21:05,VALID,918.644,VALID,0,VALID,97.6483,VALID,0,VALID,19.9143,VALID,136,VALID,0.685938,
2010-01-25, 01:22:05,VALID,918.642,VALID,0,VALID,97.6331,VALID,0,VALID,19.9338,VALID,136,VALID,1.05,
2010-01-25, 01:23:05,VALID,918.579,VALID,0,VALID,97.6255,VALID,0,VALID,19.9533,VALID,136,VALID,0.698047,
2010-01-25, 01:24:05,VALID,918.549,VALID,0,VALID,97.6255,VALID,0,VALID,19.9143,VALID,136,VALID,0.817578,
2010-01-25, 01:25:05,VALID,918.552,VALID,0,VALID,97.6178,VALID,0,VALID,19.9143,VALID,136,VALID,0.655469,
2010-01-25, 01:26:05,VALID,918.513,VALID,0,VALID,97.6407,VALID,0,VALID,19.9143,VALID,136,VALID,0.708594,
2010-01-25, 01:27:05,VALID,918.534,VALID,0,VALID,97.6178,VALID,0,VALID,19.9338,VALID,136,VALID,0.726563,
2010-01-25, 01:28:05,VALID,918.52,VALID,0,VALID,97.6255,VALID,0,VALID,19.9143,VALID,136,VALID,0.966797,
2010-01-25, 01:29:05,VALID,918.482,VALID,0,VALID,97.6483,VALID,0,VALID,19.9143,VALID,136,VALID,0.853125,
2010-01-25, 01:30:05,VALID,918.476,VALID,0,VALID,97.6178,VALID,0,VALID,19.9338,VALID,136,VALID,0.922266,
2010-01-25, 01:31:05,VALID,918.445,VALID,0,VALID,97.6255,VALID,0,VALID,19.9338,VALID,136,VALID,0.912891,
2010-01-25, 01:32:05,VALID,918.446,VALID,0,VALID,97.6026,VALID,0,VALID,19.9728,VALID,136,VALID,1.44453,
2010-01-25, 01:33:05,VALID,918.45,VALID,0,VALID,97.6178,VALID,0,VALID,19.9728,VALID,136,VALID,1.17656,
2010-01-25, 01:34:05,VALID,918.408,VALID,0,VALID,97.6026,VALID,0,VALID,19.9728,VALID,137,VALID,1.40391,
2010-01-25, 01:35:05,VALID,918.366,VALID,0,VALID,97.6026,VALID,0,VALID,19.9728,VALID,137,VALID,1.18828,
2010-01-25, 01:36:05,VALID,918.373,VALID,0,VALID,97.5797,VALID,0,VALID,19.9923,VALID,137,VALID,1.23242,
2010-01-25, 01:37:05,VALID,918.338,VALID,0,VALID,97.5492,VALID,0,VALID,19.9728,VALID,137,VALID,0.936719,
2010-01-25, 01:38:05,VALID,918.373,VALID,0,VALID,97.5797,VALID,0,VALID,19.9533,VALID,137,VALID,1.125,
2010-01-25, 01:39:05,VALID,918.359,VALID,0,VALID,97.534,VALID,0,VALID,19.9338,VALID,137,VALID,1.12305,
2010-01-25, 01:40:05,VALID,918.356,VALID,0,VALID,97.5569,VALID,0,VALID,19.9143,VALID,137,VALID,1.07813,
2010-01-25, 01:41:05,VALID,918.391,VALID,0,VALID,97.534,VALID,0,VALID,19.9353,VALID,137,VALID,0.592578,
2010-01-25, 01:42:05,VALID,918.412,VALID,0,VALID,97.5187,VALID,0,VALID,19.9158,VALID,137,VALID,0.380469,
2010-01-25, 01:43:05,VALID,918.405,VALID,0,VALID,97.5187,VALID,0.107441,VALID,19.8753,VALID,137,VALID,0.417969,
2010-01-25, 01:44:05,VALID,918.408,VALID,0,VALID,97.5187,VALID,0,VALID,19.8363,VALID,137,VALID,0.959766,
2010-01-25, 01:45:05,VALID,918.401,VALID,0,VALID,97.5492,VALID,0,VALID,19.8363,VALID,137,VALID,0.751953,
2010-01-25, 01:46:05,VALID,918.378,VALID,0,VALID,97.5645,VALID,0,VALID,19.8168,VALID,137,VALID,0.404687,
2010-01-25, 01:47:05,VALID,918.4,VALID,0,VALID,97.5797,VALID,0,VALID,19.8168,VALID,137,VALID,0.326953,
2010-01-25, 01:48:05,VALID,918.398,VALID,0,VALID,97.5797,VALID,0,VALID,19.8168,VALID,137,VALID,0.330469,
2010-01-25, 01:49:05,VALID,918.343,VALID,0,VALID,97.5797,VALID,0,VALID,19.7973,VALID,137,VALID,0.262109,
2010-01-25, 01:50:05,VALID,918.322,VALID,0,VALID,97.595,VALID,0,VALID,19.7763,VALID,137,VALID,0.364844,
2010-01-25, 01:51:05,VALID,918.331,VALID,0,VALID,97.6255,VALID,0.107441,VALID,19.8363,VALID,137,VALID,0.294922,
2010-01-25, 01:52:05,VALID,918.319,VALID,0,VALID,97.6255,VALID,0,VALID,19.8363,VALID,137,VALID,0.0699219,
2010-01-25, 01:53:05,VALID,918.281,VALID,0,VALID,97.6331,VALID,0.107441,VALID,19.8348,VALID,137,VALID,0,
2010-01-25, 01:54:05,VALID,918.249,VALID,0,VALID,97.6407,VALID,0.107441,VALID,19.8348,VALID,137,VALID,0,
2010-01-25, 01:55:05,VALID,918.222,VALID,0,VALID,97.6331,VALID,0,VALID,19.8753,VALID,137,VALID,0,
2010-01-25, 01:56:05,VALID,918.219,VALID,0,VALID,97.6178,VALID,0,VALID,19.8543,VALID,137,VALID,0,
2010-01-25, 01:57:05,VALID,918.215,VALID,0,VALID,97.6407,VALID,0.107441,VALID,19.8543,VALID,137,VALID,0.00820312,
2010-01-25, 01:58:05,VALID,918.19,VALID,0,VALID,97.6178,VALID,0,VALID,19.8543,VALID,137,VALID,0.457031,
2010-01-25, 01:59:05,VALID,918.186,VALID,0,VALID,97.6026,VALID,0.107441,VALID,19.8558,VALID,137,VALID,0.610547,
2010-01-25, 02:00:05,VALID,918.176,VALID,0,VALID,97.6178,VALID,0,VALID,19.8363,VALID,137,VALID,0.899219,
2010-01-25, 02:01:05,VALID,918.175,VALID,0,VALID,97.6026,VALID,0.107441,VALID,19.8348,VALID,137,VALID,1.01992,
2010-01-25, 02:02:05,VALID,918.137,VALID,0,VALID,97.6331,VALID,0,VALID,19.8558,VALID,137,VALID,1.01797,
2010-01-25, 02:03:05,VALID,918.152,VALID,0,VALID,97.6102,VALID,0,VALID,19.8558,VALID,137,VALID,0.953906,
2010-01-25, 02:04:05,VALID,918.127,VALID,0,VALID,97.6026,VALID,0.107441,VALID,19.8363,VALID,137,VALID,0.879687,
2010-01-25, 02:05:05,VALID,918.134,VALID,0,VALID,97.6483,VALID,0.107441,VALID,19.8558,VALID,137,VALID,1.05,
2010-01-25, 02:06:05,VALID,918.156,VALID,0,VALID,97.6483,VALID,0.107441,VALID,19.8948,VALID,138,VALID,0.842969,
2010-01-25, 02:07:05,VALID,918.175,VALID,0,VALID,97.6407,VALID,0.107441,VALID,19.9143,VALID,138,VALID,0.658984,
2010-01-25, 02:08:05,VALID,918.187,VALID,0,VALID,97.6407,VALID,0,VALID,19.9323,VALID,138,VALID,0.526172,
2010-01-25, 02:09:05,VALID,918.203,VALID,0,VALID,97.6407,VALID,0,VALID,19.9533,VALID,138,VALID,0.119531,
2010-01-25, 02:10:05,VALID,918.17,VALID,0,VALID,97.6331,VALID,0.107441,VALID,19.9728,VALID,138,VALID,0.172656,
2010-01-25, 02:11:05,VALID,918.247,VALID,0,VALID,97.6331,VALID,0,VALID,19.9923,VALID,138,VALID,0.390234,
2010-01-25, 02:12:05,VALID,918.217,VALID,0,VALID,97.6178,VALID,0,VALID,19.9518,VALID,138,VALID,0.496094,
2010-01-25, 02:13:05,VALID,918.192,VALID,0,VALID,97.6102,VALID,0,VALID,19.9728,VALID,138,VALID,0.628125,
2010-01-25, 02:14:05,VALID,918.207,VALID,0,VALID,97.6407,VALID,0.107441,VALID,19.9923,VALID,138,VALID,0.488281,
2010-01-25, 02:15:05,VALID,918.205,VALID,0,VALID,97.6331,VALID,0,VALID,20.0118,VALID,138,VALID,0.673437,
2010-01-25, 02:16:05,VALID,918.159,VALID,0,VALID,97.595,VALID,0,VALID,20.0118,VALID,138,VALID,0.679297,
2010-01-25, 02:17:05,VALID,918.128,VALID,0,VALID,97.6483,VALID,0,VALID,20.0103,VALID,138,VALID,0.578125,
2010-01-25, 02:18:05,VALID,918.131,VALID,0,VALID,97.6178,VALID,0,VALID,20.0118,VALID,138,VALID,0.711719,
2010-01-25, 02:19:05,VALID,918.113,VALID,0,VALID,97.6026,VALID,0,VALID,20.0313,VALID,138,VALID,0.710547,
2010-01-25, 02:20:05,VALID,918.09,VALID,0,VALID,97.6102,VALID,0.107441,VALID,20.0103,VALID,138,VALID,0.605078,
2010-01-25, 02:21:05,VALID,918.051,VALID,0,VALID,97.6178,VALID,0,VALID,20.0298,VALID,138,VALID,0.697266,
2010-01-25, 02:22:05,VALID,918.061,VALID,0,VALID,97.6102,VALID,0,VALID,20.0313,VALID,138,VALID,0.679297,
2010-01-25, 02:23:05,VALID,918.035,VALID,0,VALID,97.6255,VALID,0,VALID,20.0298,VALID,139,VALID,0.579297,
2010-01-25, 02:24:05,VALID,918.013,VALID,0,VALID,97.595,VALID,0,VALID,20.0703,VALID,139,VALID,0.39375,
2010-01-25, 02:25:05,VALID,917.989,VALID,0,VALID,97.5873,VALID,0,VALID,20.0493,VALID,139,VALID,0.34375,
2010-01-25, 02:26:05,VALID,917.973,VALID,0,VALID,97.5873,VALID,0,VALID,20.0508,VALID,139,VALID,0.734766,
2010-01-25, 02:27:05,VALID,917.962,VALID,0,VALID,97.595,VALID,0,VALID,20.0508,VALID,170,VALID,0.530859,
2010-01-25, 02:28:05,VALID,917.953,VALID,0,VALID,97.595,VALID,0,VALID,20.0703,VALID,170,VALID,0.408594,
2010-01-25, 02:29:05,VALID,917.949,VALID,0,VALID,97.5721,VALID,0.107441,VALID,20.0508,VALID,170,VALID,0.721484,
2010-01-25, 02:30:05,VALID,917.95,VALID,0,VALID,97.5645,VALID,0,VALID,20.0508,VALID,135,VALID,1.19727,
2010-01-25, 02:31:05,VALID,917.955,VALID,0,VALID,97.5797,VALID,0,VALID,20.0298,VALID,126,VALID,1.35,
2010-01-25, 02:32:05,VALID,917.924,VALID,0,VALID,97.595,VALID,0,VALID,20.0508,VALID,128,VALID,0.565234,
2010-01-25, 02:33:05,VALID,917.922,VALID,0,VALID,97.5721,VALID,0,VALID,20.0298,VALID,128,VALID,1.25781,
2010-01-25, 02:34:05,VALID,917.94,VALID,0,VALID,97.5873,VALID,0,VALID,20.0103,VALID,128,VALID,1.1332,
2010-01-25, 02:35:05,VALID,917.901,VALID,0,VALID,97.595,VALID,0.107441,VALID,20.0508,VALID,128,VALID,0.948438,
2010-01-25, 02:36:05,VALID,917.965,VALID,0,VALID,97.5873,VALID,0,VALID,20.0508,VALID,128,VALID,1.08789,
2010-01-25, 02:37:05,VALID,917.926,VALID,0,VALID,97.5797,VALID,0.107441,VALID,20.0508,VALID,134,VALID,1.08398,
2010-01-25, 02:38:05,VALID,917.936,VALID,0,VALID,97.6026,VALID,0.107441,VALID,20.0493,VALID,129,VALID,0.929688,
2010-01-25, 02:39:05,VALID,917.903,VALID,0,VALID,97.6026,VALID,0.107441,VALID,20.0493,VALID,147,VALID,1.11211,
2010-01-25, 02:40:05,VALID,917.935,VALID,0,VALID,97.5797,VALID,0,VALID,20.0703,VALID,147,VALID,0.926562,
2010-01-25, 02:41:05,VALID,917.95,VALID,0,VALID,97.5797,VALID,0,VALID,20.0298,VALID,147,VALID,0.823047,
2010-01-25, 02:42:05,VALID,917.963,VALID,0,VALID,97.5721,VALID,0.107441,VALID,20.0508,VALID,147,VALID,0.471094,
2010-01-25, 02:43:05,VALID,917.945,VALID,0,VALID,97.5721,VALID,0.107441,VALID,20.0313,VALID,147,VALID,0.7375,
2010-01-25, 02:44:05,VALID,917.948,VALID,0,VALID,97.5873,VALID,0,VALID,20.0103,VALID,147,VALID,0.748438,
2010-01-25, 02:45:05,VALID,917.908,VALID,0,VALID,97.595,VALID,0,VALID,20.0103,VALID,147,VALID,0.535937,
2010-01-25, 02:46:05,VALID,917.866,VALID,0,VALID,97.5873,VALID,0,VALID,20.0313,VALID,147,VALID,0.483984,
2010-01-25, 02:47:05,VALID,917.841,VALID,0,VALID,97.5873,VALID,0,VALID,20.0103,VALID,147,VALID,0.455078,
2010-01-25, 02:48:05,VALID,917.859,VALID,0,VALID,97.6026,VALID,0,VALID,20.0103,VALID,147,VALID,0.612109,
2010-01-25, 02:49:05,VALID,917.836,VALID,0,VALID,97.6026,VALID,0,VALID,20.0313,VALID,147,VALID,0.700391,
2010-01-25, 02:50:05,VALID,917.809,VALID,0,VALID,97.6026,VALID,0.107441,VALID,20.0118,VALID,147,VALID,0.428516,
2010-01-25, 02:51:05,VALID,917.823,VALID,0,VALID,97.5873,VALID,0,VALID,20.0118,VALID,147,VALID,0.308594,
2010-01-25, 02:52:05,VALID,917.808,VALID,0,VALID,97.5721,VALID,0,VALID,20.0118,VALID,147,VALID,0.0832031,
2010-01-25, 02:53:05,VALID,917.79,VALID,0,VALID,97.6255,VALID,0,VALID,20.0118,VALID,147,VALID,0.0515625,
2010-01-25, 02:54:05,VALID,917.786,VALID,0,VALID,97.6026,VALID,0,VALID,19.9923,VALID,147,VALID,0.065625,
2010-01-25, 02:55:05,VALID,917.805,VALID,0,VALID,97.595,VALID,0,VALID,19.9728,VALID,147,VALID,0.258203,
2010-01-25, 02:56:05,VALID,917.82,VALID,0,VALID,97.5873,VALID,0,VALID,19.9923,VALID,147,VALID,0.125391,
2010-01-25, 02:57:05,VALID,917.822,VALID,0,VALID,97.5797,VALID,0,VALID,19.9728,VALID,147,VALID,0.187109,
2010-01-25, 02:58:05,VALID,917.839,VALID,0,VALID,97.6026,VALID,0,VALID,19.9728,VALID,147,VALID,0.0265625,
2010-01-25, 02:59:05,VALID,917.819,VALID,0,VALID,97.6178,VALID,0,VALID,19.9923,VALID,147,VALID,0.336328,
2010-01-25, 03:00:05,VALID,917.841,VALID,0,VALID,97.6255,VALID,0,VALID,20.0133,VALID,147,VALID,0.473828,
2010-01-25, 03:01:05,VALID,917.863,VALID,0,VALID,97.6102,VALID,0,VALID,19.9923,VALID,147,VALID,0.405469,
2010-01-25, 03:02:05,VALID,917.84,VALID,0,VALID,97.595,VALID,0,VALID,19.9923,VALID,147,VALID,0.365625,
2010-01-25, 03:03:05,VALID,917.871,VALID,0,VALID,97.6255,VALID,0,VALID,19.9923,VALID,147,VALID,0.760156,
2010-01-25, 03:04:05,VALID,917.855,VALID,0,VALID,97.6178,VALID,0,VALID,19.9923,VALID,147,VALID,0.693359,
2010-01-25, 03:05:05,VALID,917.874,VALID,0,VALID,97.6026,VALID,0,VALID,20.0328,VALID,147,VALID,0.95625,
2010-01-25, 03:06:05,VALID,917.815,VALID,0,VALID,97.6331,VALID,0,VALID,19.9923,VALID,147,VALID,0.659766,
2010-01-25, 03:07:05,VALID,917.85,VALID,0,VALID,97.6102,VALID,0,VALID,20.0118,VALID,147,VALID,0.564844,
2010-01-25, 03:08:05,VALID,917.835,VALID,0,VALID,97.6102,VALID,0,VALID,20.0118,VALID,147,VALID,0.600781,
2010-01-25, 03:09:05,VALID,917.785,VALID,0,VALID,97.6026,VALID,0,VALID,20.0118,VALID,147,VALID,0.442969,
2010-01-25, 03:10:05,VALID,917.833,VALID,0,VALID,97.6026,VALID,0,VALID,20.0118,VALID,147,VALID,0.578906,
2010-01-25, 03:11:05,VALID,917.824,VALID,0,VALID,97.6102,VALID,0,VALID,20.0118,VALID,147,VALID,0.380078,
2010-01-25, 03:12:05,VALID,917.806,VALID,0,VALID,97.6102,VALID,0,VALID,19.9923,VALID,147,VALID,0.868359,
2010-01-25, 03:13:05,VALID,917.798,VALID,0,VALID,97.6026,VALID,0,VALID,20.0118,VALID,147,VALID,0.928516,
2010-01-25, 03:14:05,VALID,917.755,VALID,0,VALID,97.6102,VALID,0,VALID,20.0118,VALID,147,VALID,0.757813,
2010-01-25, 03:15:05,VALID,917.767,VALID,0,VALID,97.6026,VALID,0,VALID,20.0328,VALID,147,VALID,0.394922,
2010-01-25, 03:16:05,VALID,917.741,VALID,0,VALID,97.5721,VALID,0,VALID,20.0133,VALID,147,VALID,0.648828,
2010-01-25, 03:17:05,VALID,917.735,VALID,0,VALID,97.5873,VALID,0,VALID,20.0118,VALID,147,VALID,0.493359,
2010-01-25, 03:18:05,VALID,917.713,VALID,0,VALID,97.6026,VALID,0,VALID,20.0118,VALID,147,VALID,0.327734,
2010-01-25, 03:19:05,VALID,917.711,VALID,0,VALID,97.6026,VALID,0,VALID,20.0328,VALID,147,VALID,0.119922,
2010-01-25, 03:20:04,VALID,917.696,VALID,0,VALID,97.595,VALID,0,VALID,20.0118,VALID,147,VALID,0,
2010-01-25, 03:21:04,VALID,917.653,VALID,0,VALID,97.6026,VALID,0,VALID,20.0118,VALID,147,VALID,0,
2010-01-25, 03:22:04,VALID,917.666,VALID,0,VALID,97.595,VALID,0,VALID,20.0118,VALID,147,VALID,0,
2010-01-25, 03:23:04,VALID,917.683,VALID,0,VALID,97.595,VALID,0,VALID,19.9923,VALID,147,VALID,0.206641,
2010-01-25, 03:24:04,VALID,917.645,VALID,0,VALID,97.5797,VALID,0,VALID,20.0118,VALID,147,VALID,0.155859,
2010-01-25, 03:25:04,VALID,917.673,VALID,0,VALID,97.5873,VALID,0,VALID,20.0118,VALID,147,VALID,0,
2010-01-25, 03:26:04,VALID,917.671,VALID,0,VALID,97.6026,VALID,0,VALID,19.9923,VALID,147,VALID,0,
2010-01-25, 03:27:04,VALID,917.683,VALID,0,VALID,97.595,VALID,0,VALID,20.0118,VALID,147,VALID,0.219922,
2010-01-25, 03:28:04,VALID,917.663,VALID,0,VALID,97.595,VALID,0,VALID,20.0118,VALID,147,VALID,0.262891,
2010-01-25, 03:29:04,VALID,917.684,VALID,0,VALID,97.5721,VALID,0,VALID,20.0118,VALID,147,VALID,0.371875,
2010-01-25, 03:30:04,VALID,917.708,VALID,0,VALID,97.5873,VALID,0,VALID,19.9728,VALID,147,VALID,0.931641,
2010-01-25, 03:31:04,VALID,917.697,VALID,0,VALID,97.5645,VALID,0,VALID,19.9728,VALID,147,VALID,0.915234,
2010-01-25, 03:32:04,VALID,917.671,VALID,0,VALID,97.5797,VALID,0,VALID,19.9923,VALID,147,VALID,0.853516,
2010-01-25, 03:33:04,VALID,917.7,VALID,0,VALID,97.5569,VALID,0,VALID,19.9728,VALID,147,VALID,0.993359,
2010-01-25, 03:34:04,VALID,917.68,VALID,0,VALID,97.5721,VALID,0,VALID,19.9923,VALID,147,VALID,0.871875,
2010-01-25, 03:35:04,VALID,917.699,VALID,0,VALID,97.5416,VALID,0,VALID,19.9923,VALID,147,VALID,1.02539,
2010-01-25, 03:36:04,VALID,917.695,VALID,0,VALID,97.5492,VALID,0,VALID,20.0328,VALID,147,VALID,0.960938,
2010-01-25, 03:37:04,VALID,917.723,VALID,0,VALID,97.534,VALID,0,VALID,19.9923,VALID,147,VALID,0.957812,
2010-01-25, 03:38:04,VALID,917.719,VALID,0,VALID,97.5035,VALID,0,VALID,19.9923,VALID,147,VALID,1.21953,
2010-01-25, 03:39:04,VALID,917.715,VALID,0,VALID,97.534,VALID,0,VALID,20.0118,VALID,147,VALID,0.927734,
2010-01-25, 03:40:04,VALID,917.697,VALID,0,VALID,97.534,VALID,0,VALID,20.0118,VALID,147,VALID,0.840234,
2010-01-25, 03:41:04,VALID,917.668,VALID,0,VALID,97.4959,VALID,0,VALID,20.0118,VALID,147,VALID,0.952734,
2010-01-25, 03:42:04,VALID,917.625,VALID,0,VALID,97.4654,VALID,0,VALID,19.9923,VALID,147,VALID,1.15664,
2010-01-25, 03:43:04,VALID,917.596,VALID,0,VALID,97.4501,VALID,0,VALID,19.9923,VALID,147,VALID,1.22422,